Погода в Кагуле

Погода в Кагуле : погода сейчас, прогноз погоды и архив. Всё, что Вы хотите узнать о погоде в Кагуле!

Поиск расширенной информации на нашем сайте:

Другие новости

Новости СМИ2

Главная страница сайта

Новости сайта

03.07.2017

Напоминаем, что на нашем специализированном сайте Метеоцентр.Азия вы можете получить высокодетализированные автоматические прогнозы погоды по пунктам России, СНГ и мира в авиационном формате (включающие направление и скорость ветра, видимость, явления погоды, количество и форму облачности, нижнюю и верхнюю границу облачности).

Рекомендуем: п/э упаковка оптом спб

Погода в Кагуле - сегодня

Время (UTC), дата Ветер
(°,м/с) 
Видим.   Явления Облачность Т
(°С)
Тd
(°С)
f(%) Тe
(°С)
Pmin
(гПа)
dP
(гПа)
Po
(мм)
O2
(г/м3)
Тmin Tmax R s Состояние
почвы
12 20.08.17 070 (В) 20000 м    6/6 1000 м 
[Cu med, cong]
+32.2 +10.9 27 +35  1012.9  -1.7  750  268           
15 20.08.17 140 (ЮВ) 20000 м    3/3 1000 м 
[Cu hum]
+32.4 +8 22 +32  1011.9  -1  749  269           
18 20.08.17 120 (ЮВ) 10 км    3/3 400 м средняя 
[Ac cast]
+24.8 +11 42 +27  1012.6  0.4  750  275    +33.9       
21 20.08.17 150 (ЮВ) 10 км    ясно 
+23.2 +12.2 50 +27  1012.9  0.2  750  276           
00 21.08.17 040 (СВ) 10 км    3/0 средняя 
[Ac lent]
+21.8 +12.4 55 +26  1012.1  -0.8  749  277           
03 21.08.17 010 (С) 10 км    3/0 средняя 
[Ac trans]
+18.1 +12.3 69 +23  1011.7  -0.6  749  281  +18         
06 21.08.17 010 (С) 20000 м    8/0 360 м верхняя 
[Cs]
+20.9 +13.8 64 +28  1011.7  0.2  749  278  +16.4         
09 21.08.17 350 (С) 20000 м    8/0 средняя, верхняя 
[As trans|Ci fib]
+25.3 +16.5 58 +37  1010.6  -0.9  748  272           
12 21.08.17 350 (С) 6{12}  20000 м    8/0 верхняя 
[Cs]
+26.7 +15.7 51 +37  1009  -1.5  747  271           
15 21.08.17 340 (С) 7{13}  20000 м    9/5 1000 м средняя 
[Sc|Ac As]
+23.3 +14 56 +30  1009.3  0.1  747  275           
18 21.08.17 340 (С) 8{16}  10 км    9/4 360 м средняя 
[Sc|Ac As]
+18.7 +11.8 64 +23  1011.3  1.8  748  280    +27.8       
21 21.08.17 350 (С) 6{16}  10 км    8/0 средняя 
[Ac trans]
+16 +11.2 73 +19  1011.5  748  283           
00 22.08.17 340 (С) 5{14}  10 км    6/0 верхняя 
[Cs]
+14.8 +11.8 82 +18  1012.6  1.1  749  284           
03 22.08.17 350 (С) 5{14}  10 км    8/0 средняя 
[Ac As]
+14.9 +11.1 78 +17  1012.2  -0.4  749  284  +14.8         
06 22.08.17 350 (С) 6{12}  10 км    9/9 1000 м 
[Sc]
+16.3 +11.2 72 +19  1013.1  0.9  750  283  +14.8         
09 22.08.17 340 (С) 9{14}  20000 м    8/8 1000 м 
[Cu Sc]
+19.7 +10.1 54 +21  1012.7  -0.2  749  280           
12 22.08.17 340 (С) 7{14}  20000 м    8/8 1000 м 
[Cu Sc]
+21.6 +9.5 46 +22  1012.6  749  278           
15 22.08.17 330 (СЗ) 6{14}  20000 м    5/5 1000 м 
[Sc]
+21.6 +8.2 42 +22  1012.4  -0.2  749  278           
18 22.08.17 300 (СЗ) 1{12}  10 км    ясно 360 м 
+17.9 +8.7 55 +19  1013.2  0.6  750  282    +22.7       
21 22.08.17 330 (СЗ) 10 км    4/0 средняя 
[Ac trans]
+16.8 +8.2 57 +18  1014.2  0.9  750  283           
00 23.08.17 030 (СВ) 10 км    6/0 средняя 
[Ac trans]
+15.9 +9.6 66 +18  1014.3  0.1  751  284           
03 23.08.17 220 (ЮЗ) 10 км    5/0 средняя 
[Ac cast]
+14.4 +9.6 73 +17  1014.6  0.2  751  286  +14.2         
06 23.08.17 240 (ЮЗ) 20000 м    3/0 средняя 
[Ac lent]
+17.1 +10.5 65 +21  1015.1  0.6  751  283  +13.5         
09 23.08.17 220 (ЮЗ) 20000 м    6/6 1000 м 
[Cu hum]
+21.7 +9.9 47 +23  1014.6  -0.3  751  279           
12 23.08.17 060 (СВ) 2{13}  20000 м  в посл. час ливневой дождь  8/8 600 м кучево-дожд. 
[Cb calv]
+15.6 +14 90 +23  1015.4  0.6  751  284           
Время (UTC), дата Ветер
(°,м/с) 
Видим.   Явления Облачность Т
(°С)
Тd
(°С)
f(%) Тe
(°С)
Pmin
(гПа)
dP
(гПа)
Po
(мм)
O2
(г/м3)
Тmin Tmax R s Состояние
почвы

Для получения пояснительной информации подведите курсор к названию столбца.

ПОГОДА в Кагуле - архив

Всё, что Вы хотите узнать о погоде в Кагуле - удобно и подробно!

Выберите нужную дату (начиная с 1 января 2015* года) и нажмите кнопку "Найти".
Будут отображены архивные сводки погоды по пункту Кагул, начиная с указанной даты.


Отображать данные в формате CSV (для использования в таблицах Excel)


Внимание! Наш архив погоды предназначен исключительно для личного некоммерческого использования в познавательных целях. Если Вам необходимы официальные справки о состоянии погоды (для производственных, юридических, коммерческих и т.п. целей), обращайтесь в органы Росгидромета.

*Примечание: данная дата относится к архиву по метеостанциям СССР (Россия, СНГ, Балтия).
Архив по метеостанциям Зарубежной Европы и Азии (кроме Китая) хранится 10 дней, по другим регионам земного шара (Китай, Африка, Америка, Австралия, Океания) - 1 день.

Кагул - район местоположения метеостанции


Название, широта, долгота, высота метеостанции:
Кагул 45.9°ш. 28.2°д. 39 м над ур. моря [Украина]

Дополнительная информация

В oтличие oт бoльшинства пoгoдных сайтoв мы публикуем пoдрoбную метеoинфoрмацию в детальнoм прoфессиoнальнoм фoрмате.

Характеристики температуры и влажнoсти вoздуха измеряются на высoте 2 м в тени вдали oт зданий и деревьев.
Скoрoсть ветра измеряется на высoте 10 м (на урoвне рoста челoвека скoрoсть ветра ниже в 1.5-2 раза). Если метеoстанция нахoдится в гoрoде или в лесу, тo скoрoсть ветра занижена на 2-4 м/с пo сравнению с oткрытым местoм. Скoрoсть ветра над акватoриями крупных рек и oзёр, а также на вершинах хoлмoв на 2-5 м/с выше, чем в oбычных услoвиях.
Атмoсфернoе давление в разных тoчках местнoсти мoжет значительнo oтличаться oт давления на метеoстанции, в зависимoсти oт услoвий рельефа (при пoдъёме на 10 м давление пoнижается примернo на 1 мм рт.ст.).